Dewpoint
74 68 74 71 68 67 74 68 72 72 71 72 74 73 74 70 69 71 70 71 73 67
72 71 75 71 75 69 72 69 72 72 72 72 72 73 74 69 71 73 72 70 72 69
70 72 72 72 71 73 73 74 73 72 72 73 74 74 74 71 72 72 69 68 72 72
69 69 72 73 70 72 73 75 72 72 73 72 72 74 75 73 71 72 72 71 72 72
70 69 68 70 70 72 71 74 73 73 74 72 72 73 73 72 70 71 71 71 71 71
71 68 69 70 71 71 72 71 71 73 71 71 71 72 72 72 72 72 70 70 71 71
72 69 71 71 72 71 72 72 71 71 72 72 71 71 71 71 71 71 70 71 71 71
73 73 72 72 72 72 73 72 72 71 71 72 73 68 72 72 72 72 71 72 72 71
70 70 71 71 71 71 72 73 73 72 72 71 70 62 64 70 73 72 72 72 72 71
68 67 68 68 69 70 70 71 71 71 72 70 68 59 62 65 72 73 72 73 73 73
66 66 66 66 66 67 69 70 71 69 68 65 59 56 59 65 73 72 70 71 70 69
63 64 65 65 65 65 66 68 66 66 64 60 56 52 54 63 68 68 68 67 62 63
61 61 63 63 64 66 64 61 60 57 56 54 53 49 50 56 60 62 60 63 64 56
59 60 61 62 64 63 59 58 57 54 54 52 53 49 47 48 53 55 55 55 54 55
Lifted_Index
-3 -3 -3 -3 -3 -3 -3 -3 -3 -3 -3 -4 -4 -5 -5 -5 -4 -5 -5 -6 -6 -5
-3 -3 -3 -3 -3 -4 -4 -4 -4 -4 -4 -4 -4 -5 -5 -4 -4 -5 -5 -5 -5 -5
-3 -3 -4 -3 -3 -4 -4 -4 -4 -4 -4 -4 -4 -5 -4 -4 -4 -4 -4 -4 -5 -5
-3 -3 -3 -3 -3 -4 -4 -4 -4 -4 -4 -4 -4 -5 -5 -4 -4 -4 -4 -4 -4 -4
-3 -3 -3 -3 -3 -4 -4 -4 -4 -4 -4 -4 -4 -4 -4 -4 -4 -4 -4 -4 -4 -4
-3 -3 -3 -3 -3 -4 -4 -4 -4 -4 -4 -4 -4 -4 -4 -4 -4 -4 -4 -4 -4 -4
-3 -3 -3 -3 -4 -4 -4 -4 -4 -4 -4 -4 -4 -4 -4 -4 -4 -4 -4 -4 -4 -4
-2 -3 -3 -3 -4 -4 -4 -4 -4 -4 -4 -4 -4 -4 -4 -5 -5 -5 -4 -4 -4 -4
-1 -1 -2 -2 -3 -3 -3 -3 -4 -4 -4 -4 -3 -3 -3 -4 -5 -5 -5 -5 -5 -4
0 0 0 -0 -1 -1 -2 -2 -3 -3 -3 -2 -2 -2 -2 -3 -4 -5 -5 -4 -4 -4
0 1 1 1 1 0 -1 -1 -1 -1 -1 -0 -0 -1 -2 -2 -3 -4 -3 -3 -3 -3
-0 0 1 1 1 1 1 0 -0 0 1 1 0 -0 -1 -1 -1 -1 -1 -1 -1 -1
-1 -1 0 0 1 1 1 1 0 1 1 1 1 1 0 1 1 1 1 1 1 1
-1 -1 -0 0 0 1 1 1 1 1 1 1 1 1 2 2 2 2 1 1 2 2